Regional Weather Roundup
Issued by NWS

Home | Current Version | Previous Version | Graphics & Text | Print | Product List | Glossary On
Versions: 1 2 3 4 5 6 7 8 9 10 11 12 13 14 15 16 17 18 19 20 21 22 23 24 25 26 27 28 29 30 31 32 33 34 35 36 37 38 39 40 41 42 43 44 45 46 47 48 49 50
000
ASUS43 KOAX 231210
RWRNE

WEATHER ROUNDUP FOR NEBRASKA
NATIONAL WEATHER SERVICE OMAHA NE
700 AM CDT THU MAR 23 2017

NOTES: SATELLITE DATA IS BEING USED TO AUGMENT CLOUD COVER ABOVE
       12000 FEET.
       "FAIR" INDICATES FEW OR NO CLOUDS BELOW 12,000 FEET WITH NO
       SIGNIFICANT WEATHER AND/OR OBSTRUCTIONS TO VISIBILITY.

  * THESE STATIONS DO NOT REPORT WEATHER SUCH AS RAIN...SNOW OR FOG.

NEZ001>004-019>022-054>056-231300-
NEBRASKA PANHANDLE

CITY           SKY/WX    TMP DP  RH WIND       PRES   REMARKS
SCOTTSBLUFF    CLOUDY    37  31  78 E8        29.69F WCI  31
6HR MIN TEMP:  37; 6HR MAX TEMP:  49;

ALLIANCE       CLOUDY    36  33  89 S9        29.69F WCI  29
6HR MIN TEMP:  36; 6HR MAX TEMP:  44;

CHADRON        MOCLDY    42  35  76 S9        29.67F
6HR MIN TEMP:  42; 6HR MAX TEMP:  53;

KIMBALL        CLOUDY    32  32 100 SW3       29.70S
SIDNEY         CLOUDY    33  31  92 SE9       29.67F FOG     WCI  25
6HR MIN TEMP:  31; 6HR MAX TEMP:  47;

$$

NEZ057>060-069>072-079>082-231300-
SOUTHWEST NEBRASKA

CITY           SKY/WX    TMP DP  RH WIND       PRES   REMARKS
NORTH PLATTE   CLOUDY    45  39  79 SE14      29.76F
6HR MIN TEMP:  43; 6HR MAX TEMP:  46;

IMPERIAL       CLOUDY    42  40  92 SE12      29.71F
6HR MIN TEMP:  39; 6HR MAX TEMP:  43;

LEXINGTON      CLOUDY    48  41  78 S18G24    29.81F
MCCOOK         CLOUDY    48  47  96 SE10      29.77F FOG
6HR MIN TEMP:  42; 6HR MAX TEMP:  48;

OGALLALA       CLOUDY    41  38  91 E7        29.73F
$$

NEZ005>010-023>029-035>040-094-231300-
NORTH CENTRAL NEBRASKA

CITY           SKY/WX    TMP DP  RH WIND       PRES   REMARKS
VALENTINE      CLOUDY    45  35  68 S17G24    29.74F
6HR MIN TEMP:  42; 6HR MAX TEMP:  45;

AINSWORTH      CLOUDY    44  34  69 S15       29.76R
BROKEN BOW     CLOUDY    45  32  60 S14       29.80F
6HR MIN TEMP:  42; 6HR MAX TEMP:  45;

O`NEILL        PTCLDY    45  32  59 SE15G23   29.82F
ORD            CLOUDY    47  31  53 SE12G22   29.82F
6HR MIN TEMP:  44; 6HR MAX TEMP:  48;

THEDFORD       CLOUDY    44  36  72 S14       29.77S
$$

NEZ041-046>049-061>064-073>077-083>087-231300-
SOUTH CENTRAL NEBRASKA

CITY           SKY/WX    TMP DP  RH WIND       PRES   REMARKS
GRAND ISLAND   CLOUDY    48  36  63 SE17G25   29.88F
6HR MIN TEMP:  46; 6HR MAX TEMP:  49;

AURORA         CLOUDY    48  34  58 SE18G24   29.89F
HASTINGS       CLOUDY    49  37  63 SE17G29   29.88F
6HR MIN TEMP:  48; 6HR MAX TEMP:  49;

HEBRON         CLOUDY    48  45  88 SE16      29.92F
HOLDREGE       CLOUDY    48  41  77 S18G26    29.83F
KEARNEY *      CLOUDY    48  37  66 SE18      29.84F
YORK           CLOUDY    48  34  57 SE16      29.91F
$$

NEZ011>018-030>034-042>045-231300-
NORTHEAST NEBRASKA

CITY           SKY/WX    TMP DP  RH WIND       PRES   REMARKS
NORFOLK        CLOUDY    42  26  53 SE15      29.90F
6HR MIN TEMP:  42; 6HR MAX TEMP:  47;

ALBION         CLOUDY    46  28  50 SE15      29.89F
BLAIR          MOCLDY    44  24  46 SE12      29.99F
FREMONT        CLOUDY    44  26  48 SE13      29.98F
TEKAMAH        CLOUDY    42  23  46 SE12      30.00F
6HR MIN TEMP:  41; 6HR MAX TEMP:  44;

WAYNE          CLOUDY    40  27  59 SE15      29.94F WCI  32
$$

NEZ050>053-065>068-078-088>093-231300-
SOUTHEAST NEBRASKA

CITY           SKY/WX    TMP DP  RH WIND       PRES   REMARKS
LINCOLN        CLOUDY    51  37  58 SE20G25   29.97F
6HR MIN TEMP:  48; 6HR MAX TEMP:  51;

OMAHA EPPLEY   CLOUDY    46  23  40 SE16      30.01F
6HR MIN TEMP:  45; 6HR MAX TEMP:  46;

BEATRICE       CLOUDY    50  44  79 SE13      29.97F
FALLS CITY     CLOUDY    49  34  56 SE10G23   30.03F
6HR MIN TEMP:  49; 6HR MAX TEMP:  51; 6HR PCP: TRACE;

NEBRASKA CITY  CLOUDY    46  30  54 SE15      30.02F
PLATTSMOUTH    CLOUDY    46  23  39 SE15      30.02S
$$

NEZ044-045-051>053-067-231300-
OMAHA AREA

CITY           SKY/WX    TMP DP  RH WIND       PRES   REMARKS
OMAHA EPPLEY   CLOUDY    46  23  40 SE16      30.01F
6HR MIN TEMP:  45; 6HR MAX TEMP:  46;

BLAIR          MOCLDY    44  24  46 SE12      29.99F
FREMONT        CLOUDY    44  26  48 SE13      29.98F
MILLARD        CLOUDY    47  27  44 SE10      30.01S
OFFUTT AFB     CLOUDY    46  23  40 SE15      30.01F
PLATTSMOUTH    CLOUDY    46  23  39 SE15      30.02S
WAHOO          FAIR      44  26  49 SE13      29.97F
$$




USA.gov is the U.S. government's official web portal to all federal, state and local government web resources and services.